Minneapolis Flying Cloud, MN

4:19 AM CDT on October 21, 2019 (GMT -0500)
Flying Cloud

Weather History for KFCM - August, 2019

Change the Weather History Date:

Thursday, August 22, 2019

  Actual Average Record
Temperature  
Mean Temperature 65 °F -  
Max Temperature 73 °F 78 °F 89 °F (2010)
Min Temperature 57 °F 59 °F 52 °F (2018)
Growing Degree Days 15 (Base 50)    
Moisture  
Dew Point 50 °F    
Average Humidity 58    
Maximum Humidity 81    
Minimum Humidity 38    
Precipitation  
Precipitation 0.00 in - - ()
Sea Level Pressure  
Sea Level Pressure 30.07 in    
Wind  
Wind Speed 5 mph (NNE)    
Max Wind Speed 12 mph    
Max Gust Speed 17 mph    
Visibility 10 miles    
Events      
Averages and records for this station are not official NWS values.
T = Trace of Precipitation, MM = Missing Value Source: NWS Daily Summary

Daily Weather History Graph

Daily Weather History Graph

Search for Another Location

Airport or City:

Astronomy

Aug. 22, 2019 Rise Set
Actual Time 6:24 AM CDT 8:08 PM CDT
Civil Twilight 5:52 AM CDT 8:39 PM CDT
Nautical Twilight 5:14 AM CDT 9:17 PM CDT
Astronomical Twilight 4:33 AM CDT 9:58 PM CDT
Moon 11:41 PM CDT (8/22) 1:16 PM CDT (8/22)
Length of Visible Light 14h 46m
Length of Day
13h 44m
Waning Gibbous, 59% of the Moon is Illuminated
Aug 22
Waning Gibbous
Aug 23
Last Quarter
Aug 30
New
Sep 5
First Quarter
Sep 13
Full

Hourly Weather History & Observations

Time (CDT) Temp. Dew Point Humidity Pressure Visibility Wind Dir Wind Speed Gust Speed Precip Events Conditions
1:53 AM 62.1 °F 54.0 °F 75% 30.05 in 10.0 mi North 3.5 mph - N/A   Overcast
2:53 AM 61.0 °F 52.0 °F 72% 30.04 in 10.0 mi North 4.6 mph - N/A   Partly Cloudy
3:53 AM 60.1 °F 52.0 °F 75% 30.04 in 10.0 mi North 5.8 mph - N/A   Mostly Cloudy
4:53 AM 57.9 °F 52.0 °F 81% 30.03 in 10.0 mi North 5.8 mph - N/A   Clear
5:53 AM 59.0 °F 52.0 °F 78% 30.04 in 10.0 mi North 6.9 mph - N/A   Mostly Cloudy
6:53 AM 59.0 °F 53.1 °F 81% 30.06 in 10.0 mi North 8.1 mph - N/A   Mostly Cloudy
7:53 AM 61.0 °F 52.0 °F 72% 30.07 in 10.0 mi Variable 4.6 mph - N/A   Clear
8:53 AM 64.9 °F 52.0 °F 63% 30.09 in 10.0 mi Calm Calm - N/A   Mostly Cloudy
9:53 AM 66.9 °F 51.1 °F 57% 30.09 in 10.0 mi NNE 6.9 mph - N/A   Mostly Cloudy
10:53 AM 70.0 °F 50.0 °F 49% 30.09 in 10.0 mi Variable 3.5 mph - N/A   Clear
11:53 AM 70.0 °F 45.0 °F 41% 30.09 in 10.0 mi North 11.5 mph 17.3 mph N/A   Mostly Cloudy
12:53 PM 72.0 °F 45.0 °F 38% 30.09 in 10.0 mi East 5.8 mph - N/A   Mostly Cloudy
1:53 PM 73.0 °F 46.0 °F 38% 30.07 in 9.0 mi North 5.8 mph - N/A   Scattered Clouds
2:53 PM 73.0 °F 48.9 °F 42% 30.07 in 10.0 mi NNW 10.4 mph - N/A   Scattered Clouds
3:53 PM 73.0 °F 46.9 °F 39% 30.07 in 10.0 mi NNW 4.6 mph - N/A   Scattered Clouds
4:53 PM 73.0 °F 46.9 °F 39% 30.06 in 10.0 mi Variable 5.8 mph - N/A   Scattered Clouds
5:53 PM 70.0 °F 48.0 °F 46% 30.06 in 8.0 mi NNE 4.6 mph - N/A   Mostly Cloudy
6:53 PM 71.1 °F 48.9 °F 45% 30.06 in 10.0 mi ENE 8.1 mph - N/A   Mostly Cloudy
7:53 PM 66.9 °F 48.9 °F 52% 30.07 in 10.0 mi NE 4.6 mph - N/A   Clear
8:53 PM 64.9 °F 51.1 °F 61% 30.09 in 10.0 mi NE 4.6 mph - N/A   Clear
10:53 PM 63.0 °F 51.1 °F 65% 30.12 in 10.0 mi NE 5.8 mph - N/A   Partly Cloudy
11:53 PM 63.0 °F 51.1 °F 65% 30.13 in 10.0 mi ENE 5.8 mph - N/A   Clear